Vertical_Velocity
-0 -1 -0 0 -1 -1 -1 -2 -1 -0 -2 -2 -2 -1 1 0 -1 -8 -1 -2 -1 -2 -0 0 2 -0 -1 -2 -0 1 0 -0 0 -0 -2 -2 0 -1 -1 -1 -1 -2 -2 -1 -1 -2 -1 0 -0
0 -2 -1 -2 -1 -1 -5 -3 -1 -0 0 -2 2 -1 2 -5 0 2 2 1 0 1 -1 -1 1 2 1 1 -2 -2 -1 1 1 0 -0 -1 -1 0 -1 -0 -1 -0 0 -2 -1 -2 -1 -1 -0
1 -2 -1 0 1 -1 -1 -3 -2 -2 -1 4 3 -2 0 1 2 4 -1 0 -1 0 0 0 -1 2 1 2 2 -1 -0 -0 -0 1 -1 1 -0 -1 -1 -1 -1 -0 0 -2 2 0 0 -1 -2
-0 1 -1 3 -3 -3 -3 -4 -3 -2 -3 2 -2 -3 3 -1 0 1 1 2 1 -2 -0 -1 0 1 2 0 1 1 -0 -0 0 -2 -0 1 -0 1 0 -2 -2 0 0 0 -1 -1 -0 1 -0
1 1 2 2 -3 -2 -1 -1 2 -0 -1 1 -2 -2 2 -0 -0 0 0 -1 2 -1 -2 -1 -5 -2 -1 2 -1 -1 -0 0 3 0 -0 -2 0 0 -1 0 -0 -2 -1 -2 -1 -1 -0 -0 1
0 -0 3 1 -1 -2 -1 -0 0 -3 -2 1 -1 -5 -4 -0 -1 2 -0 -3 -0 -2 -1 1 -1 -2 -3 -3 0 1 0 0 -0 1 0 -1 0 2 -0 -1 0 -1 -0 -1 -1 -0 -1 1 0
-2 0 1 2 -1 -2 -2 -1 0 -2 -3 0 1 -6 -0 1 -2 2 -0 1 -1 1 0 1 -0 1 1 0 -2 -1 0 1 1 1 -0 1 1 0 0 1 2 -2 3 -0 -2 -0 -1 0 2
-2 1 -0 1 -1 2 -0 -0 -5 -1 -2 -2 1 3 -0 -2 -1 -0 -1 1 -1 -0 3 0 4 1 -0 1 1 -1 -2 0 1 1 0 1 -0 0 1 0 -1 0 -3 3 -1 -2 -2 -1 1
-1 3 -1 -0 0 5 1 -2 -3 1 -2 -2 -3 -2 -0 -1 -2 -0 -1 -1 -1 -1 -0 -2 -1 4 2 2 2 1 -1 -1 -0 1 -0 1 1 1 0 0 1 0 -0 0 3 1 -2 -3 -4
0 1 -3 -2 1 1 1 -0 -2 -1 -1 1 2 -1 -1 -3 -2 -1 1 1 -0 -2 -2 2 -1 -1 2 -0 2 2 -1 -0 1 -1 -0 -0 0 0 1 -2 -2 -1 1 1 2 3 1 -1 -2
1 3 -4 -2 -1 -0 -2 2 2 -4 12 -5 -2 -2 -3 2 -3 -1 0 4 0 -3 -2 0 2 -1 -2 3 -0 1 1 -0 3 1 0 1 -1 -0 1 -0 -1 -1 1 -0 2 1 3 0 1
-3 -0 -3 -2 -2 1 -2 5 -3 3 7 -10 -1 -4 -1 -5 -3 -6 -1 -2 2 4 -1 0 1 2 0 -3 1 -1 2 0 1 -0 1 0 0 0 2 2 1 1 0 -1 2 -1 1 3 2
-2 -3 -1 -2 -7 -2 0 -4 -2 18 -16 -0 -6 -5 -3 -1 -0 -9 -4 -0 -3 4 -2 -2 -0 3 1 -3 -1 7 0 -1 -0 0 0 2 2 2 4 -0 -1 -1 -2 -1 -1 -2 -1 1 1
-2 -3 -1 -5 -9 -4 0 2 -2 -10 -5 -4 -5 -6 -6 -4 -4 0 -6 -5 2 -7 -1 -2 1 -0 1 4 -1 1 3 2 -2 -1 1 3 3 0 2 2 1 -1 1 -3 -0 -0 -2 -2 2
-3 -1 -1 -5 -5 -4 -0 12 5 -16 -8 -3 -4 0 -5 -3 -3 0 2 -6 -14 2 -2 0 -0 2 -1 4 1 -1 1 8 25 5 2 1 0 2 -1 2 1 1 -0 -0 -3 2 0 1 -0
-2 -0 -4 -3 -2 -3 -5 20 11 -11 -16 -1 -5 -10 -6 2 -5 1 1 1 3 -10 -0 -3 -2 1 -1 2 1 -3 -1 14 -4 1 1 5 -1 -3 2 0 1 1 -1 -2 -4 0 -2 3 4
-0 -1 -2 -6 -5 -6 -7 20 -8 -8 -6 0 -3 -1 -2 -0 -8 -6 -7 -2 9 -4 -8 1 -2 2 1 0 3 -1 3 4 -4 8 20 3 2 0 1 6 3 -1 -0 0 -1 1 0 -2 3
0 -1 0 -9 -5 -2 -0 1 13 -9 -4 -2 -1 3 -8 -5 7 -8 -4 -8 -1 8 -11 -4 1 5 6 -2 -1 6 5 4 14 -0 8 8 0 2 0 1 1 2 1 2 0 -2 -2 1 -3
-1 -3 -4 -5 -10 -3 -7 -2 4 -0 -4 -6 -11 -8 -4 -4 -4 -2 -6 -13 -8 1 5 -18 0 9 -2 -0 -2 6 6 -1 -1 11 6 2 -0 -6 -3 -0 1 0 0 -2 -0 0 2 4 4
-4 0 -5 -1 -5 -10 -7 11 -4 -2 -6 -0 -6 0 1 -1 -9 -5 -10 -7 0 17 11 5 -3 5 -1 5 2 3 -0 1 3 1 3 -2 1 1 -2 2 -3 -0 -2 -3 0 0 -0 1 -0
-3 1 -2 -3 1 3 -12 6 -1 2 -7 -3 -3 -8 -8 -14 -10 -9 -4 -3 0 11 8 4 -6 6 -2 -7 14 -1 3 4 1 -3 -4 -3 1 1 -2 -1 1 -1 -3 -2 -1 1 -1 2 -2
-3 -4 1 -2 -2 -4 -5 -8 1 -5 -8 -5 -11 -8 -7 -7 -3 -3 -3 1 -1 4 -2 1 -7 4 3 4 9 9 5 -1 1 -3 -2 -2 4 2 1 -4 -2 -1 -2 -1 -2 -0 1 -2 3
-0 -2 -1 -2 -3 0 -3 -12 -8 -7 -1 -9 1 -2 -4 5 -8 -3 8 8 3 4 -2 -3 5 1 -3 2 6 3 4 0 5 -0 -1 -3 -0 -3 -1 2 -2 -1 -4 -3 -2 -2 0 -2 0
-0 -1 -3 -2 -2 -4 -0 -6 -3 -7 -3 0 -0 -2 -4 -6 -10 -6 4 16 1 4 1 5 2 21 6 9 5 10 3 3 3 -4 -2 -1 -3 -4 -1 -1 -1 -1 -0 0 -3 1 0 2 1
0 -2 0 -1 -1 -6 -5 -4 -8 -4 -5 -3 -5 -5 -9 -4 -4 8 28 7 4 6 4 6 6 3 5 3 2 -2 -0 2 -0 -0 -1 0 1 1 0 -1 -1 -0 1 0 -2 -3 -1 4 -1
-2 -1 -3 -2 -3 -2 -6 -4 -5 -3 -4 -2 5 -0 -2 -4 0 1 3 -0 -1 6 7 4 5 3 5 5 6 4 2 -2 1 1 -2 1 1 -0 1 -3 -0 -1 -2 2 1 -0 1 -0 0
-1 -0 -3 -4 -2 -3 -0 -0 -5 -2 -3 -2 -3 -0 4 -2 -4 -0 -0 -1 2 0 -1 1 3 7 8 1 -2 1 2 0 -0 -1 -2 -1 -2 -3 -3 -5 -1 -3 -3 -3 -1 1 1 -2 -1
-2 -4 -3 -4 -3 -2 -4 1 -0 -2 -2 -2 -2 0 6 7 3 -0 -0 -3 -4 -0 -1 -0 -1 1 1 1 2 3 5 6 4 3 2 -0 -3 1 -2 -2 -4 -3 -3 -2 -4 1 -2 2 -3
0 -2 0 0 -5 -1 1 -1 -1 -2 -3 -3 -0 -0 4 -0 -3 1 0 0 1 -1 0 0 -1 -1 2 2 -0 -1 -2 -1 0 -1 3 1 0 -5 -2 -4 -1 -1 -3 1 -4 -1 -1 2 -1
1 -2 -2 -0 -3 1 1 2 -1 -1 1 -4 3 -0 -1 2 3 2 6 -5 -3 1 2 0 1 1 1 1 4 16 7 2 3 4 8 4 11 4 -1 1 -2 -1 1 -1 3 -1 3 2 1
Height
5825 5828 5830 5833 5838 5839 5842 5843 5844 5846 5849 5851 5853 5854 5857 5858 5861 5863 5863 5865 5866 5866 5867 5868 5870 5871 5873 5875 5875 5876 5878 5880 5882 5883 5885 5886 5887 5887 5888 5889 5890 5891 5892 5893 5894 5894 5894 5894 5895
5818 5821 5824 5826 5829 5833 5836 5837 5838 5842 5843 5844 5847 5849 5851 5852 5854 5857 5859 5862 5862 5863 5864 5865 5865 5866 5868 5870 5872 5874 5874 5875 5877 5879 5880 5882 5884 5885 5886 5886 5886 5888 5890 5890 5891 5892 5893 5893 5893
5810 5814 5818 5820 5822 5826 5829 5831 5831 5835 5837 5839 5841 5842 5844 5848 5850 5853 5854 5856 5858 5859 5860 5861 5861 5863 5864 5865 5867 5869 5870 5872 5873 5873 5875 5878 5879 5881 5882 5883 5884 5885 5887 5887 5889 5890 5891 5891 5891
5804 5807 5811 5813 5815 5818 5820 5823 5824 5827 5830 5833 5834 5835 5838 5841 5843 5847 5850 5851 5853 5854 5855 5855 5857 5859 5860 5861 5862 5864 5865 5867 5868 5869 5870 5873 5874 5876 5878 5879 5881 5882 5883 5884 5885 5886 5887 5888 5889
5800 5802 5805 5807 5808 5811 5814 5816 5819 5820 5822 5826 5828 5829 5830 5833 5835 5838 5842 5844 5846 5846 5849 5851 5852 5853 5855 5857 5858 5859 5861 5863 5864 5864 5866 5867 5870 5872 5874 5875 5876 5879 5879 5881 5881 5883 5884 5885 5886
5797 5799 5801 5802 5805 5806 5810 5812 5813 5814 5815 5818 5820 5822 5822 5825 5828 5829 5833 5836 5837 5838 5841 5844 5846 5848 5849 5851 5853 5854 5856 5858 5859 5860 5861 5862 5863 5867 5869 5870 5872 5874 5876 5877 5878 5878 5879 5881 5882
5793 5796 5797 5798 5800 5802 5806 5807 5808 5808 5810 5811 5813 5815 5816 5817 5820 5822 5825 5827 5829 5829 5833 5836 5838 5841 5843 5845 5847 5849 5850 5852 5853 5854 5856 5857 5858 5859 5862 5865 5867 5868 5870 5872 5874 5875 5875 5877 5878
5789 5791 5793 5795 5796 5798 5800 5802 5804 5805 5805 5805 5807 5809 5810 5810 5811 5813 5816 5818 5820 5821 5823 5828 5831 5833 5835 5837 5840 5842 5843 5845 5846 5848 5849 5851 5852 5853 5856 5858 5860 5861 5862 5866 5868 5869 5871 5871 5873
5782 5785 5787 5789 5791 5792 5794 5796 5798 5799 5799 5799 5800 5801 5803 5804 5805 5806 5807 5810 5811 5813 5815 5817 5821 5824 5827 5829 5832 5834 5836 5838 5839 5841 5842 5844 5845 5846 5848 5850 5852 5854 5856 5858 5862 5863 5865 5866 5867
5777 5778 5781 5783 5785 5785 5787 5790 5792 5794 5794 5792 5793 5794 5795 5796 5798 5799 5800 5801 5803 5804 5806 5808 5812 5813 5817 5821 5823 5825 5828 5830 5831 5833 5835 5836 5838 5839 5842 5843 5845 5846 5849 5851 5854 5857 5858 5859 5860
5771 5773 5775 5777 5779 5781 5781 5783 5784 5786 5787 5784 5786 5786 5787 5787 5788 5790 5792 5793 5794 5797 5797 5799 5801 5805 5806 5810 5813 5817 5818 5819 5822 5824 5826 5828 5830 5832 5834 5835 5837 5838 5840 5843 5845 5848 5850 5852 5853
5765 5767 5768 5770 5773 5775 5775 5776 5775 5777 5775 5777 5778 5780 5779 5778 5779 5779 5781 5783 5784 5787 5787 5789 5791 5794 5798 5800 5804 5807 5809 5809 5811 5813 5816 5818 5821 5824 5826 5828 5829 5830 5832 5834 5837 5839 5842 5845 5847
5758 5761 5762 5764 5765 5766 5768 5767 5766 5765 5764 5765 5767 5769 5770 5770 5768 5767 5768 5770 5771 5774 5777 5778 5780 5783 5785 5789 5794 5798 5799 5800 5802 5804 5807 5809 5812 5816 5818 5819 5821 5822 5824 5826 5827 5830 5833 5836 5839
5751 5753 5754 5755 5757 5759 5760 5759 5755 5754 5755 5753 5754 5755 5756 5756 5755 5756 5753 5754 5756 5757 5760 5763 5767 5770 5774 5778 5782 5787 5791 5792 5793 5795 5796 5799 5802 5806 5808 5810 5813 5816 5817 5819 5819 5821 5822 5825 5829
5744 5746 5747 5748 5750 5751 5752 5753 5745 5743 5744 5744 5744 5741 5740 5739 5738 5739 5738 5736 5734 5739 5741 5746 5751 5756 5761 5765 5769 5775 5782 5786 5782 5783 5789 5792 5793 5796 5799 5802 5804 5806 5809 5811 5812 5814 5814 5816 5819
5739 5740 5740 5741 5742 5743 5743 5744 5734 5730 5732 5731 5727 5725 5723 5723 5718 5718 5716 5716 5717 5716 5723 5726 5732 5739 5746 5750 5756 5762 5769 5771 5774 5776 5778 5780 5783 5785 5789 5792 5795 5797 5799 5801 5804 5807 5807 5807 5808
5733 5733 5733 5733 5734 5734 5733 5734 5724 5718 5720 5718 5712 5707 5702 5700 5698 5693 5690 5694 5697 5696 5699 5707 5711 5720 5728 5734 5741 5748 5754 5759 5764 5768 5767 5768 5773 5776 5779 5784 5787 5789 5791 5793 5794 5795 5797 5797 5799
5727 5727 5726 5726 5729 5727 5724 5724 5716 5708 5706 5703 5698 5691 5685 5679 5679 5671 5669 5666 5672 5674 5675 5682 5693 5702 5709 5717 5726 5733 5739 5748 5750 5755 5758 5760 5763 5767 5773 5775 5777 5779 5781 5783 5784 5785 5783 5786 5787
5721 5720 5720 5720 5719 5718 5714 5713 5706 5699 5694 5689 5681 5673 5668 5660 5653 5644 5636 5639 5646 5654 5656 5662 5667 5681 5690 5701 5711 5719 5725 5729 5736 5740 5745 5750 5753 5758 5763 5765 5766 5770 5771 5773 5773 5774 5773 5775 5776
5715 5714 5714 5713 5710 5709 5706 5705 5698 5691 5685 5678 5668 5659 5651 5642 5632 5615 5607 5605 5612 5625 5634 5640 5650 5662 5676 5689 5698 5705 5710 5717 5723 5729 5733 5740 5744 5749 5752 5756 5756 5757 5761 5762 5763 5764 5762 5764 5764
5710 5710 5708 5706 5704 5702 5700 5699 5693 5684 5676 5667 5656 5647 5640 5629 5611 5596 5590 5587 5589 5600 5609 5621 5638 5651 5668 5682 5687 5694 5701 5707 5712 5717 5723 5728 5734 5738 5742 5744 5745 5747 5750 5751 5751 5752 5753 5753 5754
5705 5703 5702 5700 5700 5699 5694 5691 5686 5677 5669 5659 5648 5640 5634 5625 5613 5597 5587 5585 5584 5589 5596 5608 5624 5643 5663 5668 5676 5683 5690 5696 5702 5707 5713 5718 5724 5728 5731 5735 5736 5737 5739 5740 5740 5739 5741 5740 5743
5701 5699 5698 5698 5697 5694 5689 5686 5679 5671 5663 5654 5645 5638 5630 5622 5610 5598 5589 5585 5584 5586 5592 5602 5617 5635 5648 5659 5666 5672 5679 5686 5690 5696 5703 5709 5713 5717 5722 5724 5726 5727 5728 5729 5729 5728 5728 5729 5731
5696 5697 5696 5695 5692 5690 5686 5681 5676 5666 5657 5651 5642 5636 5629 5617 5609 5600 5595 5591 5587 5588 5595 5604 5618 5632 5642 5650 5658 5665 5670 5675 5680 5686 5693 5697 5703 5708 5711 5713 5715 5718 5720 5720 5718 5718 5718 5720 5722
5694 5694 5694 5693 5690 5687 5682 5677 5671 5662 5653 5646 5640 5633 5626 5617 5611 5603 5600 5598 5597 5597 5602 5610 5621 5630 5639 5646 5653 5658 5662 5668 5673 5678 5683 5688 5692 5696 5699 5703 5705 5708 5710 5711 5711 5710 5710 5711 5713
5693 5693 5691 5689 5688 5685 5681 5675 5668 5660 5651 5642 5636 5631 5624 5618 5613 5609 5606 5604 5604 5604 5608 5615 5623 5630 5636 5642 5646 5651 5655 5660 5666 5671 5675 5680 5683 5686 5689 5692 5695 5698 5698 5700 5700 5699 5700 5701 5703
5692 5690 5689 5688 5685 5683 5679 5674 5667 5659 5650 5641 5634 5628 5624 5619 5615 5611 5608 5607 5607 5608 5611 5616 5622 5628 5633 5637 5641 5645 5650 5654 5659 5664 5668 5672 5675 5678 5681 5683 5685 5686 5687 5687 5687 5688 5689 5689 5690
5691 5690 5689 5686 5683 5680 5676 5672 5667 5661 5654 5644 5635 5628 5623 5620 5618 5615 5612 5611 5611 5612 5614 5617 5621 5625 5629 5632 5636 5640 5644 5649 5653 5657 5660 5663 5666 5669 5672 5673 5675 5676 5674 5675 5676 5677 5678 5678 5677
5690 5688 5686 5684 5682 5677 5675 5672 5666 5660 5655 5648 5641 5634 5627 5620 5619 5617 5616 5616 5616 5617 5618 5620 5623 5625 5628 5631 5634 5638 5642 5645 5648 5651 5654 5656 5658 5660 5662 5664 5664 5663 5662 5663 5665 5667 5666 5667 5667
5688 5686 5684 5683 5681 5677 5673 5672 5666 5660 5655 5651 5645 5639 5634 5629 5625 5621 5619 5619 5619 5620 5621 5622 5624 5626 5628 5631 5634 5636 5639 5641 5643 5644 5647 5649 5650 5652 5652 5654 5655 5654 5654 5655 5655 5654 5654 5656 5657